Location: �clusier
(49.9361°N, 2.7869°E)
Time: 07:05:16
(UTC+00:00)

Geosat - Pass Details

Date: 16 June 2021
Orbit: 762 x 766 km, 108.0° (Epoch: 02 August)

Event Time Altitude Azimuth Distance (km) Brightness Sun altitude
Exits shadow 21:15:07 10° 162° (SSE) 2,286 5.9 -9.1°
Maximum altitude 21:20:03 63° 243° (WSW) 854 4.3 -9.5°
Drops below altitude 10° 21:25:03 10° 325° (NW) 2,311 8.1 -10.0°
Sets 21:27:22 0° 329° (NNW) 3,242 9.6 -10.2°
